Regional Weather Roundup
Issued by NWS

Home | Current Version | Previous Version | Graphics & Text | Print | Product List | Glossary On
Versions: 1 2 3 4 5 6 7 8 9 10 11 12 13 14 15 16 17 18 19 20 21 22 23 24 25 26 27 28 29 30 31 32 33 34 35 36 37 38 39 40 41 42 43 44 45 46 47 48 49 50
000
ASUS45 KSLC 070210
RWRUT

UTAH REGIONAL WEATHER ROUNDUP
NATIONAL WEATHER SERVICE SALT LAKE CITY UT
800 PM MDT WED MAY 06 2015

UTZ001>011-023>025-070300-

NORTHERN UTAH

CITY           SKY/WX    TMP DP  RH WIND       PRES   REMARKS
HILL AFB       LGT RAIN  50  49  99 N12       29.74R
LOGAN          CLOUDY    50  46  86 SW3       29.75F
OGDEN          LGT RAIN  51  49  92 NW8       29.73R
PROVO AIRPORT  MOCLDY    52  43  71 SW12      29.76R
SALT LAKE CITY RAIN      52  48  86 N15       29.70F
VERNAL         CLOUDY    53  32  44 S7        29.79R
WENDOVER       CLOUDY    52  45  76 N10       29.75S
HEBER CITY     RAIN      48  43  81 SW5       29.76R
WEST JORDAN    CLOUDY    52  48  87 CALM      29.75R

$$

UTZ012>022-026-027-070300-

SOUTHERN/CENTRAL UTAH

CITY           SKY/WX    TMP DP  RH WIND       PRES   REMARKS
BRYCE CANYON   MOCLDY    52  28  39 SW8       29.85S
CEDAR CITY     CLOUDY    54  39  57 CALM      29.80R
DELTA          CLOUDY    54  45  72 S9        29.76R
HANKSVILLE     PTCLDY    61  45  55 E5        29.72R
MILFORD        MOCLDY    54  37  52 W13G26    29.77R
MOAB/CYNLANDS  CLEAR     61  43  51 SE3       29.71R
PRICE          CLOUDY    48  39  71 N12       29.79S
ST GEORGE      CLOUDY    75  30  19 SW20G25   29.65R
KANAB          MOCLDY    64  32  29 SW9       29.77R

$$

REGIONAL REPORTS     COLORADO/ARIZONA

CITY           SKY/WX    TMP DP  RH WIND       PRES   REMARKS
CRAIG, CO      CLOUDY    48  41  76 S7        29.83R
GRAND JUNCTION LGT RAIN  51  48  89 NE10      29.78F
RIFLE          MOCLDY    49  43  80 E8        29.83R
MONTROSE       PTCLDY    56  41  57 N6        29.82R
CORTEZ         PTCLDY    56  41  57 S9        29.85R
PAGE, AZ       PTCLDY    71  26  18 CALM      29.70R
GRAND CANYON   PTCLDY    55  24  30 SW15      29.87R
KINGMAN        PTCLDY    71  36  27 S17       29.73S
FLAGSTAFF      CLEAR     52  25  35 SW13      29.91S

$$

REGIONAL REPORTS    NEVADA/IDAHO/WYOMING

CITY           SKY/WX    TMP DP  RH WIND       PRES   REMARKS
LAS VEGAS, NV  CLEAR     81  21  11 SW15      29.56S
ELY            CLOUDY    44  40  85 S9        29.81S
ELKO           CLOUDY    55  35  47 NE15      29.71R
POCATELLO, ID  CLOUDY    52  42  69 SW12      29.77R
BURLEY         CLOUDY    52  35  52 S7        29.76S
EVANSTON, WY   CLOUDY    43  43 100 SW3       29.80S
ROCK SPRINGS   RAIN      43  41  93 SE15      29.81R FOG
KEMMERER       DRIZZLE   43  37  81 SW20      29.80R

$$



USA.gov is the U.S. government's official web portal to all federal, state and local government web resources and services.